This is the latest recevied weather packets stored in our database for station/object KSL2-WX. If no packets are shown the sender has not sent any weather packets the latest 10 day(s).
| Time | Temp. | Humidity | Pressure | Rain* | Wind** | Luminosity | Snow |
|---|---|---|---|---|---|---|---|
| 1788142638 | 13.89° C | 87% | 1017.3 hPa | - | - | - | - |
| 1788139038 | 14.44° C | 84% | 1017.5 hPa | - | - | - | - |
| 1788135439 | 14.44° C | 84% | 1017.5 hPa | - | - | - | - |
| 1788131838 | 14.44° C | 84% | 1017.4 hPa | - | - | - | - |
| 1788128239 | 13.89° C | 84% | 1017.6 hPa | - | - | - | - |
| 1788124639 | 14.44° C | 86% | 1017.6 hPa | - | - | - | - |
| 1788121039 | 14.44° C | 88% | 1017.9 hPa | - | - | - | - |
| 1788117439 | 14.44° C | 89% | 1018.2 hPa | - | - | - | - |
| 1788113839 | 13.89° C | 89% | 1018 hPa | - | - | - | - |
| 1788110239 | 13.89° C | 87% | 1018.3 hPa | - | - | - | - |
| 1788106638 | 13.89° C | 88% | 1017.9 hPa | - | - | - | - |
| 1788103039 | 14.44° C | 85% | 1017.4 hPa | - | - | - | - |
| 1788099439 | 14.44° C | 89% | 1017.4 hPa | - | - | - | - |
| 1788095840 | 14.44° C | 87% | 1017.2 hPa | - | - | - | - |
| 1788092239 | 14.44° C | 86% | 1017.4 hPa | - | - | - | - |
| 1788088639 | 14.44° C | 86% | 1017 hPa | - | - | - | - |
| 1788085040 | 14.44° C | 85% | 1017.1 hPa | - | - | - | - |
| 1788081439 | 14.44° C | 81% | 1017.2 hPa | - | - | - | - |
| 1788077839 | 14.44° C | 78% | 1017.5 hPa | - | - | - | - |
| 1788074238 | 14.44° C | 76% | 1017.3 hPa | - | - | - | - |
| 1788070639 | 14.44° C | 78% | 1017.5 hPa | - | - | - | - |
| 1788067039 | 14.44° C | 78% | 1017 hPa | - | - | - | - |
| 1788063439 | 14.44° C | 78% | 1016.6 hPa | - | - | - | - |
| 1788059838 | 14.44° C | 83% | 1016.7 hPa | - | - | - | - |
| 1788056239 | 14.44° C | 84% | 1016.1 hPa | - | - | - | - |
* Rain since midnight (hover to see other rain measurements)
** Current wind speed in m/s (hover to see current wind gust speed)